Location: Medlow Airstrip Trail, Medlow Bath NSW 2780, Australia
(33.6682°S, 150.3233°E)
Time: 20:23:11
(UTC+11:00)

ISS - Visible Passes

Search period start: 19 October 2019 00:00
Search period end: 29 October 2019 00:00
Orbit: 411 x 421 km, 51.6° (Epoch: 19 October)

Date Brightness Start Highest point End Pass type
(mag) Time Alt. Az. Time Alt. Az. Time Alt. Az.
19 Oct -0.7 03:57:15 11° ENE 03:57:15 11° ENE 03:57:29 10° ENE visible
19 Oct -1.9 05:30:17 13° WNW 05:30:35 13° NW 05:32:17 10° NNW visible
19 Oct -3.1 20:30:22 10° WNW 20:33:40 56° SW 20:37:02 10° SE visible
20 Oct -3.8 19:41:49 10° NW 19:45:09 72° NE 19:48:31 10° SE visible
20 Oct -0.6 21:20:27 10° WSW 21:22:14 14° SSW 21:24:02 10° S visible
21 Oct -1.1 20:30:52 10° W 20:33:29 20° SSW 20:36:07 10° SSE visible
22 Oct -1.9 19:41:43 10° WNW 19:44:48 33° SW 19:47:56 10° SSE visible
24 Oct -0.7 19:42:42 10° WSW 19:44:39 14° SSW 19:46:36 10° S visible
